contact:dominique.lefevre@mio.osupytheas.fr, maurice.libes@osupytheas.fr, didier.mallarino@osupytheas.fr
Project:EMSO http://www.emso-fr.org/EMSO-France
Depth: 2436.0 m
Title:EMSO Ligure Ouest : Data MII capteur MICROCAT
DateTime_Computer,Latitude,Longitude,Temperature,Conductivity,Pressure,DateTime_Instrument
DateTime_Computer,Latitude,Longitude,degC,S m-1,dbar,DateTime_Instrument
2021-09-04T00:00:42Z,42.805,6.029,13.2986,4.59999,2470.404,2021-9-04T02:02:02Z
2021-09-04T00:03:45Z,42.805,6.029,13.2987,4.59999,2470.45,2021-9-04T02:05:05Z
2021-09-04T00:06:48Z,42.805,6.029,13.2988,4.59999,2470.423,2021-9-04T02:08:08Z
2021-09-04T00:09:51Z,42.805,6.029,13.2985,4.59999,2470.39,2021-9-04T02:11:12Z
2021-09-04T00:12:55Z,42.805,6.029,13.2987,4.60000,2470.413,2021-9-04T02:14:15Z
2021-09-04T00:15:58Z,42.805,6.029,13.2990,4.60001,2470.427,2021-9-04T02:17:18Z
2021-09-04T00:19:01Z,42.805,6.029,13.2988,4.59999,2470.427,2021-9-04T02:20:21Z
2021-09-04T00:22:04Z,42.805,6.029,13.2986,4.59999,2470.427,2021-9-04T02:23:24Z
2021-09-04T00:25:07Z,42.805,6.029,13.2984,4.60000,2470.39,2021-9-04T02:26:27Z
2021-09-04T00:28:10Z,42.805,6.029,13.2990,4.59999,2470.437,2021-9-04T02:29:30Z
2021-09-04T00:31:13Z,42.805,6.029,13.2989,4.60000,2470.437,2021-9-04T02:32:33Z
2021-09-04T00:34:16Z,42.805,6.029,13.2990,4.59999,2470.46,2021-9-04T02:35:37Z
2021-09-04T00:37:20Z,42.805,6.029,13.2987,4.59999,2470.376,2021-9-04T02:38:40Z
2021-09-04T00:40:23Z,42.805,6.029,13.2986,4.59999,2470.427,2021-9-04T02:41:43Z
2021-09-04T00:43:26Z,42.805,6.029,13.2991,4.60001,2470.427,2021-9-04T02:44:46Z
2021-09-04T00:46:29Z,42.805,6.029,13.2990,4.60000,2470.437,2021-9-04T02:47:49Z
2021-09-04T00:49:32Z,42.805,6.029,13.2988,4.60000,2470.474,2021-9-04T02:50:52Z
2021-09-04T00:52:35Z,42.805,6.029,13.2988,4.59999,2470.437,2021-9-04T02:53:55Z
2021-09-04T00:55:38Z,42.805,6.029,13.2991,4.59999,2470.45,2021-9-04T02:56:58Z
2021-09-04T00:58:41Z,42.805,6.029,13.2988,4.59999,2470.427,2021-9-04T03:00:01Z
2021-09-04T01:01:45Z,42.805,6.029,13.2987,4.59999,2470.413,2021-9-04T03:03:05Z
2021-09-04T01:04:48Z,42.805,6.029,13.2989,4.60001,2470.437,2021-9-04T03:06:08Z
2021-09-04T01:07:51Z,42.805,6.029,13.2990,4.59999,2470.427,2021-9-04T03:09:11Z
2021-09-04T01:10:54Z,42.805,6.029,13.2986,4.59999,2470.437,2021-9-04T03:12:14Z
2021-09-04T01:13:57Z,42.805,6.029,13.2986,4.60002,2470.46,2021-9-04T03:15:17Z
2021-09-04T01:17:00Z,42.805,6.029,13.2987,4.59999,2470.437,2021-9-04T03:18:20Z
2021-09-04T01:20:03Z,42.805,6.029,13.2990,4.59999,2470.437,2021-9-04T03:21:23Z
2021-09-04T01:23:06Z,42.805,6.029,13.2990,4.59999,2470.437,2021-9-04T03:24:26Z
2021-09-04T01:26:09Z,42.805,6.029,13.2991,4.59999,2470.45,2021-9-04T03:27:30Z
2021-09-04T01:29:13Z,42.805,6.029,13.2984,4.60000,2470.413,2021-9-04T03:30:33Z
2021-09-04T01:32:16Z,42.805,6.029,13.2990,4.60000,2470.46,2021-9-04T03:33:36Z
2021-09-04T01:35:19Z,42.805,6.029,13.2990,4.59999,2470.413,2021-9-04T03:36:39Z
2021-09-04T01:38:22Z,42.805,6.029,13.2981,4.59999,2470.39,2021-9-04T03:39:42Z
2021-09-04T01:41:25Z,42.805,6.029,13.2989,4.59999,2470.404,2021-9-04T03:42:45Z
2021-09-04T01:44:28Z,42.805,6.029,13.2986,4.59999,2470.413,2021-9-04T03:45:48Z
2021-09-04T01:47:31Z,42.805,6.029,13.2985,4.60000,2470.46,2021-9-04T03:48:51Z
2021-09-04T01:50:34Z,42.805,6.029,13.2988,4.60000,2470.474,2021-9-04T03:51:54Z
2021-09-04T01:53:38Z,42.805,6.029,13.2987,4.59999,2470.437,2021-9-04T03:54:58Z
2021-09-04T01:56:41Z,42.805,6.029,13.2990,4.59999,2470.413,2021-9-04T03:58:01Z
2021-09-04T01:59:44Z,42.805,6.029,13.2984,4.59999,2470.437,2021-9-04T04:01:04Z
2021-09-04T02:02:47Z,42.805,6.029,13.2986,4.60001,2470.427,2021-9-04T04:04:07Z
2021-09-04T02:05:50Z,42.805,6.029,13.2987,4.60001,2470.413,2021-9-04T04:07:10Z
2021-09-04T02:08:53Z,42.805,6.029,13.2988,4.60001,2470.437,2021-9-04T04:10:13Z
2021-09-04T02:11:56Z,42.805,6.029,13.2985,4.60001,2470.413,2021-9-04T04:13:16Z
2021-09-04T02:14:59Z,42.805,6.029,13.2983,4.59999,2470.45,2021-9-04T04:16:19Z
2021-09-04T02:18:02Z,42.805,6.029,13.2986,4.59999,2470.474,2021-9-04T04:19:23Z
2021-09-04T02:21:06Z,42.805,6.029,13.2988,4.59999,2470.46,2021-9-04T04:22:26Z
2021-09-04T02:24:09Z,42.805,6.029,13.2987,4.60000,2470.446,2021-9-04T04:25:29Z
2021-09-04T02:27:12Z,42.805,6.029,13.2989,4.59999,2470.46,2021-9-04T04:28:32Z
2021-09-04T02:30:15Z,42.805,6.029,13.2990,4.59999,2470.474,2021-9-04T04:31:35Z
2021-09-04T02:33:18Z,42.805,6.029,13.2986,4.59999,2470.474,2021-9-04T04:34:38Z
2021-09-04T02:36:21Z,42.805,6.029,13.2987,4.59999,2470.437,2021-9-04T04:37:41Z
2021-09-04T02:39:24Z,42.805,6.029,13.2993,4.59999,2470.45,2021-9-04T04:40:44Z
2021-09-04T02:42:27Z,42.805,6.029,13.2986,4.59999,2470.413,2021-9-04T04:43:47Z
2021-09-04T02:45:31Z,42.805,6.029,13.2989,4.60000,2470.45,2021-9-04T04:46:51Z
2021-09-04T02:48:34Z,42.805,6.029,13.2989,4.60001,2470.413,2021-9-04T04:49:54Z
2021-09-04T02:51:37Z,42.805,6.029,13.2987,4.60000,2470.46,2021-9-04T04:52:57Z
2021-09-04T02:54:40Z,42.805,6.029,13.2988,4.60001,2470.46,2021-9-04T04:56:00Z
2021-09-04T02:57:43Z,42.805,6.029,13.2987,4.60000,2470.46,2021-9-04T04:59:03Z
2021-09-04T03:00:46Z,42.805,6.029,13.2990,4.59999,2470.474,2021-9-04T05:02:06Z
2021-09-04T03:03:49Z,42.805,6.029,13.2986,4.60000,2470.474,2021-9-04T05:05:09Z
2021-09-04T03:06:52Z,42.805,6.029,13.2990,4.60000,2470.45,2021-9-04T05:08:12Z
2021-09-04T03:09:55Z,42.805,6.029,13.2990,4.60001,2470.46,2021-9-04T05:11:16Z
2021-09-04T03:12:59Z,42.805,6.029,13.2990,4.60000,2470.46,2021-9-04T05:14:19Z
2021-09-04T03:16:02Z,42.805,6.029,13.2986,4.59999,2470.46,2021-9-04T05:17:22Z
2021-09-04T03:19:05Z,42.805,6.029,13.2987,4.60000,2470.46,2021-9-04T05:20:25Z
2021-09-04T03:22:08Z,42.805,6.029,13.2985,4.59999,2470.437,2021-9-04T05:23:28Z
2021-09-04T03:25:11Z,42.805,6.029,13.2986,4.60000,2470.46,2021-9-04T05:26:31Z
2021-09-04T03:28:14Z,42.805,6.029,13.2990,4.60001,2470.45,2021-9-04T05:29:34Z
2021-09-04T03:31:17Z,42.805,6.029,13.2987,4.60000,2470.46,2021-9-04T05:32:37Z
2021-09-04T03:34:20Z,42.805,6.029,13.2988,4.60003,2470.46,2021-9-04T05:35:40Z
2021-09-04T03:37:24Z,42.805,6.029,13.2986,4.60000,2470.483,2021-9-04T05:38:44Z
2021-09-04T03:40:27Z,42.805,6.029,13.2988,4.60000,2470.437,2021-9-04T05:41:47Z
2021-09-04T03:43:30Z,42.805,6.029,13.2987,4.60000,2470.497,2021-9-04T05:44:50Z
2021-09-04T03:46:33Z,42.805,6.029,13.2990,4.60000,2470.437,2021-9-04T05:47:53Z
2021-09-04T03:49:36Z,42.805,6.029,13.2988,4.60001,2470.483,2021-9-04T05:50:56Z
2021-09-04T03:52:39Z,42.805,6.029,13.2991,4.60000,2470.497,2021-9-04T05:53:59Z
2021-09-04T03:55:42Z,42.805,6.029,13.2992,4.60001,2470.483,2021-9-04T05:57:02Z
2021-09-04T03:58:45Z,42.805,6.029,13.2987,4.60001,2470.483,2021-9-04T06:00:05Z
2021-09-04T04:01:48Z,42.805,6.029,13.2988,4.60000,2470.497,2021-9-04T06:03:09Z
2021-09-04T04:04:52Z,42.805,6.029,13.2987,4.60001,2470.46,2021-9-04T06:06:12Z
2021-09-04T04:07:55Z,42.805,6.029,13.2988,4.60000,2470.46,2021-9-04T06:09:15Z
2021-09-04T04:10:58Z,42.805,6.029,13.2992,4.59999,2470.474,2021-9-04T06:12:18Z
2021-09-04T04:14:01Z,42.805,6.029,13.2990,4.60000,2470.46,2021-9-04T06:15:21Z
2021-09-04T04:17:04Z,42.805,6.029,13.2985,4.60001,2470.483,2021-9-04T06:18:24Z
2021-09-04T04:20:07Z,42.805,6.029,13.2985,4.60001,2470.483,2021-9-04T06:21:27Z
2021-09-04T04:23:10Z,42.805,6.029,13.2990,4.60002,2470.474,2021-9-04T06:24:30Z
2021-09-04T04:26:13Z,42.805,6.029,13.2988,4.60000,2470.46,2021-9-04T06:27:33Z
2021-09-04T04:29:17Z,42.805,6.029,13.2986,4.60003,2470.507,2021-9-04T06:30:37Z
2021-09-04T04:32:20Z,42.805,6.029,13.2989,4.60000,2470.483,2021-9-04T06:33:40Z
2021-09-04T04:35:23Z,42.805,6.029,13.2988,4.60001,2470.46,2021-9-04T06:36:43Z
2021-09-04T04:38:26Z,42.805,6.029,13.2990,4.60000,2470.46,2021-9-04T06:39:46Z
2021-09-04T04:41:29Z,42.805,6.029,13.2989,4.60002,2470.52,2021-9-04T06:42:49Z
2021-09-04T04:44:32Z,42.805,6.029,13.2988,4.60000,2470.474,2021-9-04T06:45:52Z
2021-09-04T04:47:35Z,42.805,6.029,13.2989,4.60001,2470.544,2021-9-04T06:48:55Z
2021-09-04T04:50:38Z,42.805,6.029,13.2990,4.60001,2470.497,2021-9-04T06:51:58Z
2021-09-04T04:53:41Z,42.805,6.029,13.2992,4.60001,2470.483,2021-9-04T06:55:02Z
2021-09-04T04:56:45Z,42.805,6.029,13.2986,4.60001,2470.507,2021-9-04T06:58:05Z
2021-09-04T04:59:48Z,42.805,6.029,13.2987,4.60001,2470.483,2021-9-04T07:01:08Z
2021-09-04T05:02:51Z,42.805,6.029,13.2990,4.60001,2470.46,2021-9-04T07:04:11Z
2021-09-04T05:05:54Z,42.805,6.029,13.2991,4.60001,2470.497,2021-9-04T07:07:14Z
2021-09-04T05:08:57Z,42.805,6.029,13.2987,4.60001,2470.497,2021-9-04T07:10:17Z
2021-09-04T05:12:00Z,42.805,6.029,13.2991,4.60003,2470.497,2021-9-04T07:13:20Z
2021-09-04T05:15:03Z,42.805,6.029,13.2990,4.60000,2470.483,2021-9-04T07:16:23Z
2021-09-04T05:18:06Z,42.805,6.029,13.2990,4.60001,2470.497,2021-9-04T07:19:26Z
2021-09-04T05:21:10Z,42.805,6.029,13.2988,4.60001,2470.497,2021-9-04T07:22:30Z
2021-09-04T05:24:13Z,42.805,6.029,13.2989,4.60000,2470.52,2021-9-04T07:25:33Z
2021-09-04T05:27:16Z,42.805,6.029,13.2990,4.60001,2470.483,2021-9-04T07:28:36Z
2021-09-04T05:30:19Z,42.805,6.029,13.2986,4.60001,2470.483,2021-9-04T07:31:39Z
2021-09-04T05:33:22Z,42.805,6.029,13.2987,4.60000,2470.483,2021-9-04T07:34:42Z
2021-09-04T05:36:25Z,42.805,6.029,13.2989,4.60002,2470.483,2021-9-04T07:37:45Z
2021-09-04T05:39:28Z,42.805,6.029,13.2988,4.60001,2470.483,2021-9-04T07:40:48Z
2021-09-04T05:42:31Z,42.805,6.029,13.2989,4.60003,2470.507,2021-9-04T07:43:51Z
2021-09-04T05:45:34Z,42.805,6.029,13.2990,4.60000,2470.507,2021-9-04T07:46:55Z
2021-09-04T05:48:38Z,42.805,6.029,13.2988,4.60000,2470.52,2021-9-04T07:49:58Z
2021-09-04T05:51:41Z,42.805,6.029,13.2990,4.59999,2470.507,2021-9-04T07:53:01Z
2021-09-04T05:54:44Z,42.805,6.029,13.2988,4.60000,2470.483,2021-9-04T07:56:04Z
2021-09-04T05:57:47Z,42.805,6.029,13.2987,4.60002,2470.52,2021-9-04T07:59:07Z
2021-09-04T06:00:50Z,42.805,6.029,13.2990,4.60002,2470.497,2021-9-04T08:02:10Z
2021-09-04T06:03:53Z,42.805,6.029,13.2991,4.60001,2470.507,2021-9-04T08:05:13Z
2021-09-04T06:06:56Z,42.805,6.029,13.2990,4.60000,2470.483,2021-9-04T08:08:16Z
2021-09-04T06:09:59Z,42.805,6.029,13.2990,4.60001,2470.507,2021-9-04T08:11:20Z
2021-09-04T06:13:03Z,42.805,6.029,13.2988,4.60001,2470.483,2021-9-04T08:14:23Z
2021-09-04T06:16:06Z,42.805,6.029,13.2990,4.60002,2470.483,2021-9-04T08:17:26Z
2021-09-04T06:19:09Z,42.805,6.029,13.2988,4.60001,2470.497,2021-9-04T08:20:29Z
2021-09-04T06:22:12Z,42.805,6.029,13.2991,4.60000,2470.483,2021-9-04T08:23:32Z
2021-09-04T06:25:15Z,42.805,6.029,13.2990,4.60002,2470.53,2021-9-04T08:26:35Z
2021-09-04T06:28:18Z,42.805,6.029,13.2993,4.60004,2470.46,2021-9-04T08:29:38Z
2021-09-04T06:31:21Z,42.805,6.029,13.2990,4.60001,2470.497,2021-9-04T08:32:41Z
2021-09-04T06:34:24Z,42.805,6.029,13.2990,4.60002,2470.507,2021-9-04T08:35:45Z
2021-09-04T06:37:28Z,42.805,6.029,13.2987,4.60001,2470.507,2021-9-04T08:38:48Z
2021-09-04T06:40:31Z,42.805,6.029,13.2986,4.60001,2470.52,2021-9-04T08:41:51Z
2021-09-04T06:43:34Z,42.805,6.029,13.2990,4.60001,2470.52,2021-9-04T08:44:54Z
2021-09-04T06:46:37Z,42.805,6.029,13.2990,4.60001,2470.483,2021-9-04T08:47:57Z
2021-09-04T06:49:40Z,42.805,6.029,13.2987,4.60002,2470.46,2021-9-04T08:51:00Z
2021-09-04T06:52:43Z,42.805,6.029,13.2991,4.60001,2470.497,2021-9-04T08:54:03Z
2021-09-04T06:55:46Z,42.805,6.029,13.2990,4.60003,2470.483,2021-9-04T08:57:06Z
2021-09-04T06:58:49Z,42.805,6.029,13.2983,4.60000,2470.483,2021-9-04T09:00:09Z
2021-09-04T07:01:52Z,42.805,6.029,13.2989,4.60002,2470.497,2021-9-04T09:03:13Z
2021-09-04T07:04:56Z,42.805,6.029,13.2987,4.60000,2470.446,2021-9-04T09:06:16Z
2021-09-04T07:07:59Z,42.805,6.029,13.2990,4.60000,2470.46,2021-9-04T09:09:19Z
2021-09-04T07:11:02Z,42.805,6.029,13.2986,4.60000,2470.483,2021-9-04T09:12:22Z
2021-09-04T07:14:05Z,42.805,6.029,13.2990,4.60003,2470.46,2021-9-04T09:15:25Z
2021-09-04T07:17:08Z,42.805,6.029,13.2986,4.60002,2470.483,2021-9-04T09:18:28Z
2021-09-04T07:20:11Z,42.805,6.029,13.2985,4.60001,2470.437,2021-9-04T09:21:31Z
2021-09-04T07:23:14Z,42.805,6.029,13.2988,4.60002,2470.46,2021-9-04T09:24:34Z
2021-09-04T07:26:17Z,42.805,6.029,13.2991,4.60001,2470.474,2021-9-04T09:27:38Z
2021-09-04T07:29:21Z,42.805,6.029,13.2987,4.60003,2470.437,2021-9-04T09:30:41Z
2021-09-04T07:32:24Z,42.805,6.029,13.2986,4.60002,2470.474,2021-9-04T09:33:44Z
2021-09-04T07:35:27Z,42.805,6.029,13.2987,4.60003,2470.45,2021-9-04T09:36:47Z
2021-09-04T07:38:30Z,42.805,6.029,13.2987,4.60003,2470.46,2021-9-04T09:39:50Z
2021-09-04T07:41:33Z,42.805,6.029,13.2986,4.60003,2470.483,2021-9-04T09:42:53Z
2021-09-04T07:44:36Z,42.805,6.029,13.2988,4.60002,2470.497,2021-9-04T09:45:56Z
2021-09-04T07:47:39Z,42.805,6.029,13.2986,4.60003,2470.497,2021-9-04T09:48:59Z
2021-09-04T07:50:42Z,42.805,6.029,13.2991,4.60002,2470.474,2021-9-04T09:52:02Z
2021-09-04T07:53:45Z,42.805,6.029,13.2990,4.60001,2470.45,2021-9-04T09:55:06Z
2021-09-04T07:56:49Z,42.805,6.029,13.2989,4.60002,2470.437,2021-9-04T09:58:09Z
2021-09-04T07:59:52Z,42.805,6.029,13.2986,4.60001,2470.46,2021-9-04T10:01:12Z
2021-09-04T08:02:55Z,42.805,6.029,13.2988,4.60002,2470.46,2021-9-04T10:04:15Z
2021-09-04T08:05:58Z,42.805,6.029,13.2987,4.60003,2470.474,2021-9-04T10:07:18Z
2021-09-04T08:09:01Z,42.805,6.029,13.2990,4.60002,2470.437,2021-9-04T10:10:21Z
2021-09-04T08:12:04Z,42.805,6.029,13.2988,4.60001,2470.413,2021-9-04T10:13:24Z
2021-09-04T08:15:07Z,42.805,6.029,13.2986,4.60002,2470.46,2021-9-04T10:16:27Z
2021-09-04T08:18:10Z,42.805,6.029,13.2990,4.60001,2470.45,2021-9-04T10:19:31Z
2021-09-04T08:21:14Z,42.805,6.029,13.2992,4.60002,2470.474,2021-9-04T10:22:34Z
2021-09-04T08:24:17Z,42.805,6.029,13.2987,4.60000,2470.437,2021-9-04T10:25:37Z
2021-09-04T08:27:20Z,42.805,6.029,13.2985,4.60001,2470.45,2021-9-04T10:28:40Z
2021-09-04T08:30:23Z,42.805,6.029,13.2991,4.60001,2470.437,2021-9-04T10:31:43Z
2021-09-04T08:33:26Z,42.805,6.029,13.2982,4.60000,2470.474,2021-9-04T10:34:46Z
2021-09-04T08:36:29Z,42.805,6.029,13.2988,4.60000,2470.46,2021-9-04T10:37:49Z
2021-09-04T08:39:32Z,42.805,6.029,13.2991,4.60003,2470.45,2021-9-04T10:40:52Z
2021-09-04T08:42:35Z,42.805,6.029,13.2985,4.60003,2470.427,2021-9-04T10:43:55Z
2021-09-04T08:45:39Z,42.805,6.029,13.2990,4.60003,2470.45,2021-9-04T10:46:59Z
2021-09-04T08:48:42Z,42.805,6.029,13.2986,4.60002,2470.413,2021-9-04T10:50:02Z
2021-09-04T08:51:45Z,42.805,6.029,13.2985,4.60002,2470.413,2021-9-04T10:53:05Z
2021-09-04T08:54:48Z,42.805,6.029,13.2991,4.60001,2470.46,2021-9-04T10:56:08Z
2021-09-04T08:57:51Z,42.805,6.029,13.2990,4.60000,2470.45,2021-9-04T10:59:11Z
2021-09-04T09:00:54Z,42.805,6.029,13.2988,4.60002,2470.437,2021-9-04T11:02:14Z
2021-09-04T09:03:57Z,42.805,6.029,13.2990,4.60003,2470.45,2021-9-04T11:05:17Z
2021-09-04T09:07:00Z,42.805,6.029,13.2989,4.60002,2470.437,2021-9-04T11:08:20Z
2021-09-04T09:10:03Z,42.805,6.029,13.2986,4.60003,2470.427,2021-9-04T11:11:24Z
2021-09-04T09:13:07Z,42.805,6.029,13.2991,4.60003,2470.45,2021-9-04T11:14:27Z
2021-09-04T09:16:10Z,42.805,6.029,13.2990,4.60000,2470.39,2021-9-04T11:17:30Z
2021-09-04T09:19:13Z,42.805,6.029,13.2990,4.60001,2470.413,2021-9-04T11:20:33Z
2021-09-04T09:22:16Z,42.805,6.029,13.2991,4.60004,2470.427,2021-9-04T11:23:36Z
2021-09-04T09:25:19Z,42.805,6.029,13.2989,4.60003,2470.413,2021-9-04T11:26:39Z
2021-09-04T09:28:22Z,42.805,6.029,13.2987,4.60003,2470.45,2021-9-04T11:29:42Z
2021-09-04T09:31:25Z,42.805,6.029,13.2986,4.60002,2470.437,2021-9-04T11:32:45Z
2021-09-04T09:34:28Z,42.805,6.029,13.2988,4.60002,2470.427,2021-9-04T11:35:49Z
2021-09-04T09:37:32Z,42.805,6.029,13.2988,4.60001,2470.437,2021-9-04T11:38:52Z
2021-09-04T09:40:35Z,42.805,6.029,13.2987,4.60001,2470.404,2021-9-04T11:41:55Z
2021-09-04T09:43:38Z,42.805,6.029,13.2986,4.60002,2470.437,2021-9-04T11:44:58Z
2021-09-04T09:46:41Z,42.805,6.029,13.2986,4.60001,2470.399,2021-9-04T11:48:01Z
2021-09-04T09:49:44Z,42.805,6.029,13.2987,4.60002,2470.413,2021-9-04T11:51:04Z
2021-09-04T09:52:47Z,42.805,6.029,13.2990,4.60001,2470.39,2021-9-04T11:54:07Z
2021-09-04T09:55:50Z,42.805,6.029,13.2990,4.60001,2470.413,2021-9-04T11:57:10Z
2021-09-04T09:58:53Z,42.805,6.029,13.2990,4.60003,2470.404,2021-9-04T12:00:14Z
2021-09-04T10:01:57Z,42.805,6.029,13.2992,4.60002,2470.39,2021-9-04T12:03:17Z
2021-09-04T10:05:00Z,42.805,6.029,13.2983,4.60002,2470.413,2021-9-04T12:06:20Z
2021-09-04T10:08:03Z,42.805,6.029,13.2984,4.60003,2470.413,2021-9-04T12:09:23Z
2021-09-04T10:11:06Z,42.805,6.029,13.2989,4.60001,2470.366,2021-9-04T12:12:26Z
2021-09-04T10:14:09Z,42.805,6.029,13.2986,4.60001,2470.357,2021-9-04T12:15:29Z
2021-09-04T10:17:12Z,42.805,6.029,13.2990,4.60003,2470.366,2021-9-04T12:18:32Z
2021-09-04T10:20:15Z,42.805,6.029,13.2990,4.60002,2470.366,2021-9-04T12:21:35Z
2021-09-04T10:23:18Z,42.805,6.029,13.2986,4.60000,2470.366,2021-9-04T12:24:39Z
2021-09-04T10:26:22Z,42.805,6.029,13.2990,4.60001,2470.366,2021-9-04T12:27:42Z
2021-09-04T10:29:25Z,42.805,6.029,13.2991,4.60001,2470.366,2021-9-04T12:30:45Z
2021-09-04T10:32:28Z,42.805,6.029,13.2987,4.60001,2470.38,2021-9-04T12:33:48Z
2021-09-04T10:35:31Z,42.805,6.029,13.2986,4.60001,2470.404,2021-9-04T12:36:51Z
2021-09-04T10:38:34Z,42.805,6.029,13.2989,4.60001,2470.343,2021-9-04T12:39:54Z
2021-09-04T10:41:37Z,42.805,6.029,13.2991,4.60002,2470.343,2021-9-04T12:42:57Z
2021-09-04T10:44:40Z,42.805,6.029,13.2990,4.60001,2470.404,2021-9-04T12:46:00Z
2021-09-04T10:47:43Z,42.805,6.029,13.2990,4.60001,2470.343,2021-9-04T12:49:04Z
2021-09-04T10:50:47Z,42.805,6.029,13.2989,4.60002,2470.366,2021-9-04T12:52:07Z
2021-09-04T10:53:50Z,42.805,6.029,13.2986,4.60003,2470.357,2021-9-04T12:55:10Z
2021-09-04T10:56:53Z,42.805,6.029,13.2990,4.60003,2470.366,2021-9-04T12:58:13Z
2021-09-04T10:59:56Z,42.805,6.029,13.2986,4.60002,2470.366,2021-9-04T13:01:16Z
2021-09-04T11:02:59Z,42.805,6.029,13.2989,4.60002,2470.343,2021-9-04T13:04:19Z
2021-09-04T11:06:02Z,42.805,6.029,13.2983,4.60001,2470.343,2021-9-04T13:07:22Z
2021-09-04T11:09:05Z,42.805,6.029,13.2990,4.60001,2470.343,2021-9-04T13:10:25Z
2021-09-04T11:12:08Z,42.805,6.029,13.2986,4.60001,2470.343,2021-9-04T13:13:28Z
2021-09-04T11:15:12Z,42.805,6.029,13.2987,4.60003,2470.343,2021-9-04T13:16:32Z
2021-09-04T11:18:15Z,42.805,6.029,13.2988,4.60001,2470.357,2021-9-04T13:19:35Z
2021-09-04T11:21:18Z,42.805,6.029,13.2988,4.60001,2470.343,2021-9-04T13:22:38Z
2021-09-04T11:24:21Z,42.805,6.029,13.2987,4.60001,2470.366,2021-9-04T13:25:41Z
2021-09-04T11:27:24Z,42.805,6.029,13.2988,4.60001,2470.343,2021-9-04T13:28:44Z
2021-09-04T11:30:27Z,42.805,6.029,13.2990,4.60001,2470.32,2021-9-04T13:31:47Z
2021-09-04T11:33:30Z,42.805,6.029,13.2990,4.59999,2470.334,2021-9-04T13:34:50Z
2021-09-04T11:36:33Z,42.805,6.029,13.2986,4.60001,2470.357,2021-9-04T13:37:54Z
2021-09-04T11:39:37Z,42.805,6.029,13.2991,4.60001,2470.366,2021-9-04T13:40:57Z
2021-09-04T11:42:40Z,42.805,6.029,13.2989,4.60001,2470.343,2021-9-04T13:44:00Z
2021-09-04T11:45:43Z,42.805,6.029,13.2983,4.60001,2470.32,2021-9-04T13:47:03Z
2021-09-04T11:48:46Z,42.805,6.029,13.2988,4.60000,2470.334,2021-9-04T13:50:06Z
2021-09-04T11:51:49Z,42.805,6.029,13.2986,4.60000,2470.343,2021-9-04T13:53:09Z
2021-09-04T11:54:52Z,42.805,6.029,13.2990,4.60000,2470.357,2021-9-04T13:56:12Z
2021-09-04T11:57:55Z,42.805,6.029,13.2983,4.60001,2470.366,2021-9-04T13:59:15Z
2021-09-04T12:00:58Z,42.805,6.029,13.2988,4.60003,2470.32,2021-9-04T14:02:18Z
2021-09-04T12:04:01Z,42.805,6.029,13.2990,4.60000,2470.343,2021-9-04T14:05:22Z
2021-09-04T12:07:05Z,42.805,6.029,13.2990,4.60001,2470.32,2021-9-04T14:08:25Z
2021-09-04T12:10:08Z,42.805,6.029,13.2990,4.59999,2470.357,2021-9-04T14:11:28Z
2021-09-04T12:13:11Z,42.805,6.029,13.2986,4.60000,2470.343,2021-9-04T14:14:31Z
2021-09-04T12:16:14Z,42.805,6.029,13.2992,4.60000,2470.334,2021-9-04T14:17:34Z
2021-09-04T12:19:17Z,42.805,6.029,13.2991,4.60000,2470.357,2021-9-04T14:20:37Z
2021-09-04T12:22:20Z,42.805,6.029,13.2987,4.60000,2470.32,2021-9-04T14:23:40Z
2021-09-04T12:25:23Z,42.805,6.029,13.2989,4.60000,2470.343,2021-9-04T14:26:43Z
2021-09-04T12:28:26Z,42.805,6.029,13.2987,4.60003,2470.343,2021-9-04T14:29:47Z
2021-09-04T12:31:30Z,42.805,6.029,13.2991,4.59999,2470.32,2021-9-04T14:32:50Z
2021-09-04T12:34:33Z,42.805,6.029,13.2989,4.60000,2470.343,2021-9-04T14:35:53Z
2021-09-04T12:37:36Z,42.805,6.029,13.2990,4.60000,2470.33,2021-9-04T14:38:56Z
2021-09-04T12:40:39Z,42.805,6.029,13.2984,4.60000,2470.343,2021-9-04T14:41:59Z
2021-09-04T12:43:42Z,42.805,6.029,13.2991,4.60003,2470.343,2021-9-04T14:45:02Z
2021-09-04T12:46:45Z,42.805,6.029,13.2986,4.60000,2470.343,2021-9-04T14:48:05Z
2021-09-04T12:49:48Z,42.805,6.029,13.2989,4.60002,2470.404,2021-9-04T14:51:08Z
2021-09-04T12:52:51Z,42.805,6.029,13.2987,4.60001,2470.32,2021-9-04T14:54:12Z
2021-09-04T12:55:55Z,42.805,6.029,13.2986,4.60001,2470.366,2021-9-04T14:57:15Z
2021-09-04T12:58:58Z,42.805,6.029,13.2986,4.60001,2470.366,2021-9-04T15:00:18Z
2021-09-04T13:02:01Z,42.805,6.029,13.2991,4.60000,2470.38,2021-9-04T15:03:21Z
2021-09-04T13:05:04Z,42.805,6.029,13.2990,4.60000,2470.366,2021-9-04T15:06:24Z
2021-09-04T13:08:07Z,42.805,6.029,13.2986,4.60001,2470.366,2021-9-04T15:09:27Z
2021-09-04T13:11:10Z,42.805,6.029,13.2987,4.60000,2470.366,2021-9-04T15:12:30Z
2021-09-04T13:14:13Z,42.805,6.029,13.2990,4.60000,2470.38,2021-9-04T15:15:33Z
2021-09-04T13:17:16Z,42.805,6.029,13.2989,4.60000,2470.39,2021-9-04T15:18:37Z
2021-09-04T13:20:20Z,42.805,6.029,13.2991,4.59999,2470.38,2021-9-04T15:21:40Z
2021-09-04T13:23:23Z,42.805,6.029,13.2990,4.60000,2470.39,2021-9-04T15:24:43Z
2021-09-04T13:26:26Z,42.805,6.029,13.2990,4.59999,2470.343,2021-9-04T15:27:46Z
2021-09-04T13:29:29Z,42.805,6.029,13.2992,4.60000,2470.39,2021-9-04T15:30:49Z
2021-09-04T13:32:32Z,42.805,6.029,13.2987,4.60001,2470.404,2021-9-04T15:33:52Z
2021-09-04T13:35:35Z,42.805,6.029,13.2990,4.60001,2470.39,2021-9-04T15:36:55Z
2021-09-04T13:38:38Z,42.805,6.029,13.2991,4.60001,2470.357,2021-9-04T15:39:58Z
2021-09-04T13:41:41Z,42.805,6.029,13.2991,4.60001,2470.343,2021-9-04T15:43:02Z
2021-09-04T13:44:45Z,42.805,6.029,13.2988,4.60001,2470.357,2021-9-04T15:46:05Z
2021-09-04T13:47:48Z,42.805,6.029,13.2989,4.60001,2470.404,2021-9-04T15:49:08Z
2021-09-04T13:50:51Z,42.805,6.029,13.2991,4.60000,2470.38,2021-9-04T15:52:11Z
2021-09-04T13:53:54Z,42.805,6.029,13.2989,4.60001,2470.366,2021-9-04T15:55:14Z
2021-09-04T13:56:57Z,42.805,6.029,13.2990,4.60000,2470.39,2021-9-04T15:58:17Z
2021-09-04T14:00:00Z,42.805,6.029,13.2991,4.60000,2470.404,2021-9-04T16:01:20Z
2021-09-04T14:03:03Z,42.805,6.029,13.2993,4.60001,2470.404,2021-9-04T16:04:23Z
2021-09-04T14:06:06Z,42.805,6.029,13.2989,4.60002,2470.404,2021-9-04T16:07:27Z
2021-09-04T14:09:10Z,42.805,6.029,13.2990,4.60001,2470.404,2021-9-04T16:10:30Z
2021-09-04T14:12:13Z,42.805,6.029,13.2990,4.60002,2470.404,2021-9-04T16:13:33Z
2021-09-04T14:15:16Z,42.805,6.029,13.2990,4.60001,2470.413,2021-9-04T16:16:36Z
2021-09-04T14:18:19Z,42.805,6.029,13.2989,4.60001,2470.45,2021-9-04T16:19:39Z
2021-09-04T14:21:22Z,42.805,6.029,13.2987,4.60000,2470.437,2021-9-04T16:22:42Z
2021-09-04T14:24:25Z,42.805,6.029,13.2987,4.60001,2470.46,2021-9-04T16:25:45Z
2021-09-04T14:27:28Z,42.805,6.029,13.2988,4.60001,2470.427,2021-9-04T16:28:48Z
2021-09-04T14:30:31Z,42.805,6.029,13.2985,4.60000,2470.45,2021-9-04T16:31:52Z
2021-09-04T14:33:35Z,42.805,6.029,13.2988,4.60002,2470.46,2021-9-04T16:34:55Z
2021-09-04T14:36:38Z,42.805,6.029,13.2986,4.60000,2470.437,2021-9-04T16:37:58Z
2021-09-04T14:39:41Z,42.805,6.029,13.2985,4.60002,2470.46,2021-9-04T16:41:01Z
2021-09-04T14:42:44Z,42.805,6.029,13.2990,4.60001,2470.437,2021-9-04T16:44:04Z
2021-09-04T14:45:47Z,42.805,6.029,13.2991,4.60001,2470.413,2021-9-04T16:47:07Z
2021-09-04T14:48:50Z,42.805,6.029,13.2987,4.60001,2470.437,2021-9-04T16:50:10Z
2021-09-04T14:51:53Z,42.805,6.029,13.2991,4.60002,2470.474,2021-9-04T16:53:13Z
2021-09-04T14:54:56Z,42.805,6.029,13.2988,4.60001,2470.474,2021-9-04T16:56:17Z
2021-09-04T14:58:00Z,42.805,6.029,13.2986,4.60001,2470.437,2021-9-04T16:59:20Z
2021-09-04T15:01:03Z,42.805,6.029,13.2991,4.60000,2470.446,2021-9-04T17:02:23Z
2021-09-04T15:04:06Z,42.805,6.029,13.2990,4.60001,2470.46,2021-9-04T17:05:26Z
2021-09-04T15:07:09Z,42.805,6.029,13.2990,4.60001,2470.45,2021-9-04T17:08:29Z
2021-09-04T15:10:12Z,42.805,6.029,13.2990,4.60000,2470.474,2021-9-04T17:11:32Z
2021-09-04T15:13:15Z,42.805,6.029,13.2988,4.60001,2470.45,2021-9-04T17:14:35Z